When you browse on this site, cookies collect data to enhance your experience and personalize the content and advertising you see.
Visit our Privacy Policy to learn more. By continuing to use the site, you agree to this use of cookies and data.
  • In Latvia
  • List of Countries
  • For 7 days
  • Water Temperature
  • Weather Map
  • Weather Widgets
  • user-avatar
    Login

    Hourly Weather Hryakove

    Today, 2 April, Thursday

    Time Temperature Precipitation Wind Pressure Humidity
    00:00 0°C° 0 mm 3 mps 749 mmHg 63%
    01:00 0°C° 0 mm 3 mps 749 mmHg 65%
    02:00 -1°C° 0 mm 3 mps 749 mmHg 62%
    03:00 -1°C° 0 mm 3 mps 749 mmHg 63%
    04:00 -1°C° 0 mm 3 mps 749 mmHg 64%
    05:00 -1°C° 0 mm 3 mps 749 mmHg 65%
    06:00 -1°C° 0 mm 4 mps 749 mmHg 61%
    07:00 +1°C° 0 mm 4 mps 749 mmHg 56%
    08:00 +3°C° 0 mm 4 mps 749 mmHg 51%
    09:00 +3°C° 0 mm 5 mps 749 mmHg 47%
    10:00 +5°C° 0 mm 5 mps 749 mmHg 44%
    11:00 +7°C° 0 mm 5 mps 748 mmHg 40%
    12:00 +7°C° 0 mm 6 mps 748 mmHg 39%
    13:00 +8°C° 0 mm 6 mps 748 mmHg 38%
    14:00 +8°C° 0 mm 6 mps 748 mmHg 37%
    15:00 +8°C° 0 mm 5 mps 748 mmHg 38%
    16:00 +8°C° 0 mm 5 mps 748 mmHg 38%
    17:00 +7°C° 0 mm 5 mps 747 mmHg 39%
    18:00 +6°C° 0 mm 4 mps 748 mmHg 43%
    19:00 +5°C° 0 mm 3 mps 748 mmHg 47%
    20:00 +4°C° 0 mm 3 mps 748 mmHg 51%
    21:00 +4°C° 0 mm 3 mps 748 mmHg 53%
    22:00 +3°C° 0 mm 3 mps 748 mmHg 54%
    23:00 +3°C° 0 mm 3 mps 748 mmHg 56%

    Tomorrow, 3 April, Friday

    Time Temperature Precipitation Wind Pressure Humidity
    00:00 +3°C° 0 mm 3 mps 748 mmHg 57%
    01:00 +2°C° 0 mm 3 mps 748 mmHg 59%
    02:00 +2°C° 0 mm 3 mps 748 mmHg 60%
    03:00 +2°C° 0 mm 3 mps 748 mmHg 61%
    04:00 +1°C° 0 mm 3 mps 748 mmHg 61%
    05:00 +1°C° 0 mm 3 mps 748 mmHg 61%
    06:00 +2°C° 0 mm 3 mps 748 mmHg 57%
    07:00 +4°C° 0 mm 3 mps 748 mmHg 52%
    08:00 +5°C° 0 mm 3 mps 749 mmHg 48%
    09:00 +7°C° 0 mm 4 mps 749 mmHg 43%
    10:00 +8°C° 0 mm 4 mps 748 mmHg 38%
    11:00 +10°C° 0 mm 5 mps 748 mmHg 33%
    12:00 +10°C° 0 mm 5 mps 748 mmHg 32%
    13:00 +12°C° 0 mm 5 mps 748 mmHg 31%
    14:00 +12°C° 0 mm 5 mps 748 mmHg 31%
    15:00 +12°C° 0 mm 5 mps 748 mmHg 32%
    16:00 +12°C° 0 mm 5 mps 748 mmHg 33%
    17:00 +11°C° 0 mm 4 mps 747 mmHg 34%
    18:00 +10°C° 0 mm 4 mps 748 mmHg 38%
    19:00 +9°C° 0 mm 3 mps 748 mmHg 43%
    20:00 +7°C° 0 mm 3 mps 749 mmHg 47%
    21:00 +7°C° 0 mm 3 mps 749 mmHg 49%
    22:00 +5°C° 0 mm 3 mps 749 mmHg 51%
    23:00 +5°C° 0 mm 3 mps 749 mmHg 53%

    Day after tomorrow, 4 April, Saturday

    Time Temperature Precipitation Wind Pressure Humidity
    00:00 +4°C° 0 mm 3 mps 749 mmHg 55%
    01:00 +4°C° 0 mm 3 mps 749 mmHg 56%
    02:00 +4°C° 0 mm 3 mps 750 mmHg 57%
    03:00 +3°C° 0 mm 3 mps 750 mmHg 59%
    04:00 +3°C° 0 mm 3 mps 750 mmHg 60%
    05:00 +3°C° 0 mm 3 mps 750 mmHg 61%
    06:00 +4°C° 0 mm 3 mps 751 mmHg 59%
    07:00 +5°C° 0 mm 3 mps 751 mmHg 57%
    08:00 +7°C° 0 mm 3 mps 752 mmHg 55%
    09:00 +9°C° 0 mm 3 mps 752 mmHg 53%
    10:00 +10°C° 0 mm 3 mps 752 mmHg 50%
    11:00 +11°C° 0 mm 4 mps 753 mmHg 48%
    12:00 +12°C° 0 mm 4 mps 753 mmHg 46%
    13:00 +12°C° 0 mm 4 mps 753 mmHg 43%
    14:00 +12°C° 0 mm 5 mps 753 mmHg 40%
    15:00 +12°C° 0 mm 5 mps 753 mmHg 40%
    16:00 +10°C° 0 mm 5 mps 753 mmHg 39%
    17:00 +11°C° 0 mm 4 mps 754 mmHg 38%
    18:00 +8°C° 0 mm 4 mps 754 mmHg 42%
    19:00 +8°C° 0 mm 3 mps 755 mmHg 45%
    20:00 +7°C° 0 mm 3 mps 755 mmHg 48%
    21:00 +5°C° 0 mm 3 mps 756 mmHg 47%
    22:00 +5°C° 0 mm 3 mps 756 mmHg 47%
    23:00 +5°C° 0 mm 2 mps 756 mmHg 47%

    5 April, Sunday

    Time Temperature Precipitation Wind Pressure Humidity
    00:00 +4°C° 0 mm 2 mps 757 mmHg 47%
    01:00 +4°C° 0 mm 2 mps 757 mmHg 48%
    02:00 +4°C° 0 mm 2 mps 757 mmHg 49%
    03:00 +3°C° 0 mm 2 mps 757 mmHg 52%
    04:00 +2°C° 0 mm 3 mps 758 mmHg 55%
    05:00 +1°C° 0 mm 3 mps 758 mmHg 57%
    06:00 +2°C° 0 mm 3 mps 758 mmHg 56%
    07:00 +4°C° 0 mm 4 mps 758 mmHg 55%
    08:00 +5°C° 0 mm 5 mps 759 mmHg 53%
    09:00 +6°C° 0 mm 5 mps 759 mmHg 48%
    10:00 +7°C° 0 mm 6 mps 759 mmHg 44%
    11:00 +8°C° 0 mm 7 mps 759 mmHg 39%
    12:00 +8°C° 0 mm 7 mps 759 mmHg 38%
    13:00 +7°C° 0 mm 8 mps 760 mmHg 37%
    14:00 +6°C° 0 mm 9 mps 760 mmHg 35%
    15:00 +6°C° 0 mm 8 mps 760 mmHg 34%
    16:00 +5°C° 0 mm 8 mps 760 mmHg 32%
    17:00 +5°C° 0 mm 8 mps 760 mmHg 31%
    18:00 +4°C° 0 mm 7 mps 761 mmHg 34%
    19:00 +3°C° 0 mm 6 mps 762 mmHg 38%
    20:00 +2°C° 0 mm 5 mps 763 mmHg 41%
    21:00 +1°C° 0 mm 4 mps 763 mmHg 44%
    22:00 +1°C° 0 mm 4 mps 764 mmHg 46%
    23:00 0°C° 0 mm 4 mps 764 mmHg 48%

    6 April, Monday

    Time Temperature Precipitation Wind Pressure Humidity
    00:00 0°C° 0 mm 4 mps 764 mmHg 50%
    01:00 0°C° 0 mm 3 mps 765 mmHg 52%
    02:00 0°C° 0 mm 3 mps 765 mmHg 54%
    03:00 -1°C° 0 mm 3 mps 766 mmHg 56%
    04:00 -1°C° 0 mm 3 mps 766 mmHg 58%
    05:00 -1°C° 0 mm 3 mps 766 mmHg 59%
    06:00 -1°C° 0 mm 4 mps 767 mmHg 53%
    07:00 +1°C° 0 mm 4 mps 767 mmHg 46%
    08:00 +3°C° 0 mm 4 mps 767 mmHg 40%
    09:00 +4°C° 0 mm 4 mps 767 mmHg 38%
    10:00 +6°C° 0 mm 4 mps 767 mmHg 35%
    11:00 +7°C° 0 mm 4 mps 767 mmHg 33%
    12:00 +8°C° 0 mm 4 mps 767 mmHg 33%
    13:00 +8°C° 0 mm 5 mps 767 mmHg 33%
    14:00 +9°C° 0 mm 5 mps 767 mmHg 32%
    15:00 +9°C° 0 mm 5 mps 766 mmHg 34%
    16:00 +9°C° 0 mm 5 mps 766 mmHg 35%
    17:00 +9°C° 0 mm 5 mps 766 mmHg 36%
    18:00 +7°C° 0 mm 4 mps 766 mmHg 41%
    19:00 +7°C° 0 mm 3 mps 766 mmHg 46%
    20:00 +6°C° 0 mm 2 mps 766 mmHg 50%
    21:00 +6°C° 0 mm 2 mps 766 mmHg 52%
    22:00 +5°C° 0 mm 2 mps 766 mmHg 54%
    23:00 +5°C° 0 mm 2 mps 766 mmHg 56%

    7 April, Tuesday

    Time Temperature Precipitation Wind Pressure Humidity
    00:00 +4°C° 0 mm 2 mps 766 mmHg 57%
    01:00 +4°C° 0 mm 2 mps 766 mmHg 58%
    02:00 +4°C° 0 mm 2 mps 766 mmHg 59%
    03:00 +3°C° 0 mm 2 mps 767 mmHg 59%
    04:00 +3°C° 0 mm 2 mps 767 mmHg 60%
    05:00 +3°C° 0 mm 2 mps 767 mmHg 61%
    06:00 +5°C° 0 mm 2 mps 767 mmHg 56%
    07:00 +6°C° 0 mm 2 mps 767 mmHg 50%
    08:00 +8°C° 0 mm 3 mps 767 mmHg 45%
    09:00 +9°C° 0 mm 3 mps 766 mmHg 40%
    10:00 +11°C° 0 mm 3 mps 766 mmHg 35%
    11:00 +12°C° 0 mm 3 mps 766 mmHg 30%
    12:00 +13°C° 0 mm 3 mps 766 mmHg 29%
    13:00 +14°C° 0 mm 4 mps 765 mmHg 27%
    14:00 +15°C° 0 mm 4 mps 765 mmHg 26%
    15:00 +14°C° 0 mm 4 mps 764 mmHg 28%
    16:00 +14°C° 0 mm 4 mps 764 mmHg 30%
    17:00 +14°C° 0 mm 4 mps 763 mmHg 32%
    18:00 +12°C° 0 mm 3 mps 763 mmHg 36%
    19:00 +11°C° 0 mm 3 mps 763 mmHg 40%
    20:00 +9°C° 0 mm 2 mps 763 mmHg 45%
    21:00 +9°C° 0 mm 2 mps 763 mmHg 46%
    22:00 +8°C° 0 mm 3 mps 763 mmHg 48%
    23:00 +7°C° 0 mm 3 mps 763 mmHg 49%
    Show more